Kansas City, MO

6:16 PM CDT on August 27, 2016 (GMT -0500)
Kansas City Downtown

Weather History for KMKC - December, 2013

Change the Weather History Date:

Saturday, December 7, 2013

  Actual Average Record
Temperature  
Mean Temperature 13 °F -  
Max Temperature 21 °F 44 °F 62 °F (2000)
Min Temperature 5 °F 28 °F 5 °F (2013)
Degree Days  
Heating Degree Days 52    
Moisture  
Dew Point 0 °F    
Average Humidity 54    
Maximum Humidity 73    
Minimum Humidity 38    
Precipitation  
Precipitation 0.00 in - - ()
Sea Level Pressure  
Sea Level Pressure 30.65 in    
Wind  
Wind Speed 7 mph (NE)    
Max Wind Speed 12 mph    
Max Gust Speed 20 mph    
Visibility 10 miles    
Events      
Averages and records for this station are not official NWS values.
T = Trace of Precipitation, MM = Missing Value Source: NWS Daily Summary

Daily Weather History Graph

Daily Weather History Graph

Search for Another Location

Airport or City:

Trip Planner

Search our weather history database for the weather conditions in past years. The results will help you decide how hot, cold, wet, or windy it might be!

Date:

Astronomy

Dec. 07, 2013 Rise Set
Actual Time 7:24 AM CST 4:55 PM CST
Civil Twilight 6:54 AM CST 5:25 PM CST
Nautical Twilight 6:21 AM CST 5:58 PM CST
Astronomical Twilight 5:48 AM CST 6:31 PM CST
Moon 11:11 AM CST (12/7) 10:36 PM CST (12/7)
Length of Visible Light 10h 30m
Length of Day
9h 31m
Waxing Crescent, 29% of the Moon is Illuminated
Dec 7
Waxing Crescent
Dec 9
First Quarter
Dec 17
Full
Dec 25
Last Quarter
Jan 1
New

Hourly Weather History & Observations

Time (CST) Temp. Windchill Dew Point Humidity Pressure Visibility Wind Dir Wind Speed Gust Speed Precip Events Conditions
12:54 AM 10.0 °F 0.4 °F -0.9 °F 61% 30.71 in 10.0 mi North 5.8 mph - N/A   Clear
1:54 AM 9.0 °F -2.2 °F -0.9 °F 64% 30.72 in 10.0 mi North 6.9 mph - N/A   Clear
2:54 AM 8.1 °F -0.5 °F -0.9 °F 67% 30.74 in 10.0 mi North 4.6 mph - N/A   Clear
3:54 AM 7.0 °F 0.1 °F -2.0 °F 67% 30.75 in 10.0 mi North 3.5 mph - N/A   Clear
4:54 AM 6.1 °F -2.8 °F -2.0 °F 69% 30.76 in 10.0 mi NNW 4.6 mph - N/A   Clear
5:54 AM 6.1 °F -4.3 °F -2.0 °F 69% 30.76 in 10.0 mi NNW 5.8 mph - N/A   Clear
6:54 AM 5.0 °F -5.6 °F -2.0 °F 73% 30.78 in 10.0 mi North 5.8 mph - N/A   Clear
7:54 AM 5.0 °F -4.1 °F -2.0 °F 73% 30.80 in 10.0 mi North 4.6 mph - N/A   Clear
8:54 AM 8.1 °F -4.3 °F -2.0 °F 64% 30.78 in 10.0 mi NNE 8.1 mph - N/A   Clear
9:54 AM 10.0 °F -0.9 °F -0.9 °F 61% 30.79 in 10.0 mi ENE 6.9 mph - N/A   Clear
10:54 AM 14.0 °F 5.1 °F -0.0 °F 54% 30.76 in 10.0 mi Variable 5.8 mph - N/A   Clear
11:54 AM 16.0 °F 8.8 °F -0.0 °F 49% 30.73 in 10.0 mi Variable 4.6 mph - N/A   Clear
12:54 PM 19.0 °F 11.1 °F 1.0 °F 46% 30.68 in 10.0 mi ESE 5.8 mph - N/A   Clear
1:54 PM 21.0 °F 12.4 °F -0.0 °F 40% 30.63 in 10.0 mi Variable 6.9 mph - N/A   Clear
2:54 PM 21.9 °F 11.0 °F -0.0 °F 38% 30.60 in 10.0 mi ENE 10.4 mph - N/A   Clear
3:54 PM 21.0 °F 9.3 °F -0.0 °F 40% 30.58 in 10.0 mi East 11.5 mph - N/A   Clear
4:54 PM 19.9 °F 7.9 °F 1.0 °F 44% 30.54 in 10.0 mi ENE 11.5 mph - N/A   Clear
5:54 PM 19.9 °F 9.3 °F 1.0 °F 44% 30.55 in 10.0 mi ENE 9.2 mph - N/A   Clear
6:54 PM 19.9 °F 11.1 °F 1.9 °F 46% 30.55 in 10.0 mi ESE 6.9 mph - N/A   Scattered Clouds
7:54 PM 21.0 °F 12.4 °F 1.9 °F 44% 30.54 in 10.0 mi ESE 6.9 mph - N/A   Mostly Cloudy
8:54 PM 21.0 °F 9.9 °F 1.9 °F 44% 30.51 in 10.0 mi East 10.4 mph 16.1 mph N/A   Mostly Cloudy
9:54 PM 21.0 °F 9.3 °F 1.9 °F 44% 30.48 in 10.0 mi East 11.5 mph - N/A   Overcast
10:54 PM 21.0 °F 9.9 °F 3.0 °F 46% 30.44 in 10.0 mi East 10.4 mph - N/A   Overcast
11:54 PM 21.0 °F 10.6 °F 3.0 °F 46% 30.42 in 10.0 mi ESE 9.2 mph 19.6 mph N/A   Overcast